Volkel, Netherlands

12:42 AM CEST on July 27, 2016 (GMT +0200)
Volkel Air Base

Weather History for EHVK - November, 2012

Change the Weather History Date:

Friday, November 2, 2012

  Actual Average Record
Temperature  
Mean Temperature 46 °F -  
Max Temperature 51 °F 47 °F 64 °F (2014)
Min Temperature 41 °F 35 °F 30 °F (2006)
Degree Days  
Heating Degree Days 19    
Moisture  
Dew Point 40 °F    
Average Humidity 83    
Maximum Humidity 100    
Minimum Humidity 62    
Precipitation  
Precipitation 0.00 in - - ()
Sea Level Pressure  
Sea Level Pressure 29.35 in    
Wind  
Wind Speed 15 mph ()    
Max Wind Speed 23 mph    
Max Gust Speed 34 mph    
Visibility 6.0 miles    
Events Rain    
Averages and records for this station are not official NWS values.
T = Trace of Precipitation, MM = Missing Value Source: Averaged Metar Reports

Daily Weather History Graph

Daily Weather History Graph

Search for Another Location

Airport or City:

Trip Planner

Search our weather history database for the weather conditions in past years. The results will help you decide how hot, cold, wet, or windy it might be!

Date:

Astronomy

Nov. 02, 2012 Rise Set
Actual Time 7:33 AM CET 5:07 PM CET
Civil Twilight 6:57 AM CET 5:42 PM CET
Nautical Twilight 6:18 AM CET 6:22 PM CET
Astronomical Twilight 5:39 AM CET 7:01 PM CET
Moon 7:25 PM CET (11/2) 10:57 AM CET (11/2)
Length of Visible Light 10h 44m
Length of Day
9h 33m
Waning Gibbous, 89% of the Moon is Illuminated
Nov 2
Waning Gibbous
Nov 7
Last Quarter
Nov 13
New
Nov 20
First Quarter
Nov 28
Full

Hourly Weather History & Observations

Time (CET) Temp. Windchill Dew Point Humidity Pressure Visibility Wind Dir Wind Speed Gust Speed Precip Events Conditions
12:25 AM 44.6 °F 38.4 °F 39.2 °F 81% 29.18 in 6.2 mi SSW 12.7 mph - N/A   Mostly Cloudy
12:55 AM 44.6 °F 38.1 °F 39.2 °F 81% 29.21 in 6.2 mi SSW 13.8 mph - N/A   Overcast
1:03 AM 44.6 °F 37.8 °F 39.2 °F 81% 29.21 in 6.2 mi SSW 15.0 mph - N/A   Overcast
1:07 AM 44.6 °F 37.8 °F 39.2 °F 81% 29.21 in 6.2 mi SSW 15.0 mph - N/A   Overcast
1:25 AM 44.6 °F 36.9 °F 39.2 °F 81% 29.21 in 6.2 mi SSW 18.4 mph - N/A   Overcast
1:55 AM 44.6 °F 37.2 °F 39.2 °F 81% 29.21 in 6.2 mi SSW 17.3 mph - N/A   Mostly Cloudy
2:01 AM 44.6 °F 37.4 °F 39.2 °F 81% 29.21 in 6.2 mi SSW 16.1 mph - N/A   Mostly Cloudy
2:13 AM 44.6 °F 37.4 °F 39.2 °F 81% 29.21 in 6.2 mi SSW 16.1 mph - N/A   Overcast
2:17 AM 44.6 °F 37.4 °F 39.2 °F 81% 29.21 in 6.2 mi SSW 16.1 mph - N/A   Light Drizzle
2:25 AM 44.6 °F 36.9 °F 39.2 °F 81% 29.24 in 6.2 mi SSW 18.4 mph - N/A   Overcast
2:55 AM 44.6 °F 36.6 °F 39.2 °F 81% 29.24 in 6.2 mi SW 19.6 mph - N/A   Mostly Cloudy
3:04 AM 44.6 °F 36.9 °F 39.2 °F 81% 29.24 in 6.2 mi SW 18.4 mph - N/A   Overcast
3:09 AM 44.6 °F 37.2 °F 39.2 °F 81% 29.24 in 6.2 mi SW 17.3 mph - N/A   Overcast
3:13 AM 42.8 °F 34.8 °F 39.2 °F 87% 29.24 in 6.2 mi SW 17.3 mph - N/A   Overcast
3:17 AM 42.8 °F 34.8 °F 39.2 °F 87% 29.27 in 6.2 mi SW 17.3 mph - N/A   Mostly Cloudy
3:25 AM 42.8 °F 34.3 °F 39.2 °F 87% 29.27 in 6.2 mi SW 19.6 mph - N/A   Overcast
3:55 AM 42.8 °F 34.8 °F 39.2 °F 87% 29.27 in 6.2 mi SW 17.3 mph - N/A   Mostly Cloudy
4:25 AM 42.8 °F 34.3 °F 37.4 °F 81% 29.27 in 6.2 mi SW 19.6 mph - N/A   Mostly Cloudy
4:55 AM 42.8 °F 34.0 °F 37.4 °F 81% 29.30 in 6.2 mi SW 20.7 mph - N/A   Mostly Cloudy
5:25 AM 42.8 °F 34.0 °F 37.4 °F 81% 29.30 in 6.2 mi SW 20.7 mph - N/A   Mostly Cloudy
5:55 AM 42.8 °F 34.5 °F 37.4 °F 81% 29.30 in 6.2 mi SW 18.4 mph - N/A   Partly Cloudy
6:25 AM 42.8 °F 35.1 °F 37.4 °F 81% 29.33 in 6.2 mi SSW 16.1 mph - N/A   Mostly Cloudy
6:55 AM 42.8 °F 35.1 °F 37.4 °F 81% 29.33 in 6.2 mi SSW 16.1 mph - N/A   Overcast
7:25 AM 42.8 °F 34.8 °F 37.4 °F 81% 29.33 in 6.2 mi SSW 17.3 mph - N/A   Overcast
7:37 AM 42.8 °F 34.3 °F 37.4 °F 81% 29.33 in 6.2 mi SSW 19.6 mph - N/A   Scattered Clouds
7:40 AM 42.8 °F 34.3 °F 37.4 °F 81% 29.33 in 6.2 mi SSW 19.6 mph - N/A   Scattered Clouds
7:44 AM 42.8 °F 34.5 °F 37.4 °F 81% 29.33 in 6.2 mi SSW 18.4 mph - N/A   Mostly Cloudy
7:55 AM 42.8 °F 35.1 °F 37.4 °F 81% 29.33 in 6.2 mi SSW 16.1 mph - N/A   Overcast
8:03 AM 42.8 °F 34.5 °F 37.4 °F 81% 29.33 in 6.2 mi SSW 18.4 mph - N/A   Overcast
8:06 AM 42.8 °F 34.3 °F 37.4 °F 81% 29.33 in 6.2 mi SSW 19.6 mph - N/A   Overcast
8:09 AM 42.8 °F 34.5 °F 37.4 °F 81% 29.33 in 6.2 mi SSW 18.4 mph - N/A   Overcast
8:16 AM 44.6 °F 37.2 °F 37.4 °F 76% 29.33 in 6.2 mi SSW 17.3 mph - N/A   Overcast
8:25 AM 44.6 °F 36.6 °F 37.4 °F 76% 29.36 in 6.2 mi SSW 19.6 mph - N/A   Overcast
8:55 AM 44.6 °F 37.2 °F 37.4 °F 76% 29.36 in 6.2 mi SSW 17.3 mph - N/A   Mostly Cloudy
9:25 AM 44.6 °F 37.2 °F 37.4 °F 76% 29.36 in 6.2 mi SSW 17.3 mph 31.1 mph N/A   Overcast
9:55 AM 44.6 °F 37.4 °F 39.2 °F 81% 29.39 in 6.2 mi SSW 16.1 mph - N/A   Overcast
10:25 AM 46.4 °F 39.2 °F 39.2 °F 76% 29.39 in 6.2 mi SSW 18.4 mph - N/A   Mostly Cloudy
10:43 AM 46.4 °F 39.5 °F 37.4 °F 71% 29.39 in 6.2 mi SSW 17.3 mph - N/A   Mostly Cloudy
10:47 AM 46.4 °F 39.5 °F 39.2 °F 76% 29.39 in 6.2 mi SSW 17.3 mph - N/A   Mostly Cloudy
10:55 AM 46.4 °F 39.5 °F 37.4 °F 71% 29.39 in 6.2 mi SSW 17.3 mph - N/A   Mostly Cloudy
11:25 AM 46.4 °F 39.8 °F 39.2 °F 76% 29.39 in 6.2 mi SSW 16.1 mph - N/A   Mostly Cloudy
11:41 AM 46.4 °F 39.5 °F 39.2 °F 76% 29.39 in 6.2 mi SSW 17.3 mph - N/A   Overcast
11:42 AM 48.2 °F - 39.2 °F 71% 29.39 in 6.2 mi SSW 18.4 mph - N/A   Mostly Cloudy
11:55 AM 46.4 °F 39.2 °F 39.2 °F 76% 29.39 in 6.2 mi SSW 18.4 mph - N/A   Mostly Cloudy
11:59 AM 46.4 °F 39.8 °F 39.2 °F 76% 29.39 in 6.2 mi SSW 16.1 mph - N/A   Mostly Cloudy
12:06 PM 46.4 °F 40.4 °F 39.2 °F 76% 29.39 in 6.2 mi SSW 13.8 mph - N/A   Mostly Cloudy
12:11 PM 48.2 °F - 41.0 °F 76% 29.39 in 6.2 mi SSW 13.8 mph - N/A   Mostly Cloudy
12:15 PM 48.2 °F - 39.2 °F 71% 29.39 in 6.2 mi SSW 15.0 mph - N/A   Overcast
12:20 PM 48.2 °F - 39.2 °F 71% 29.39 in 6.2 mi SSW 19.6 mph - N/A   Mostly Cloudy
12:25 PM 50.0 °F - 41.0 °F 71% 29.39 in 6.2 mi SSW 19.6 mph - N/A   Mostly Cloudy
12:26 PM 50.0 °F - 39.2 °F 66% 29.39 in 6.2 mi SSW 16.1 mph - N/A   Mostly Cloudy
12:38 PM 50.0 °F - 39.2 °F 66% 29.39 in 6.2 mi SSW 19.6 mph - N/A   Mostly Cloudy
12:55 PM 50.0 °F - 39.2 °F 66% 29.39 in 6.2 mi SSW 16.1 mph 27.6 mph N/A   Scattered Clouds
1:25 PM 50.0 °F - 37.4 °F 62% 29.39 in 6.2 mi SSW 19.6 mph - N/A   Scattered Clouds
1:49 PM 50.0 °F - 39.2 °F 66% 29.39 in 6.2 mi SSW 16.1 mph - N/A   Mostly Cloudy
1:55 PM 50.0 °F - 37.4 °F 62% 29.39 in 6.2 mi SSW 17.3 mph - N/A   Mostly Cloudy
2:25 PM 50.0 °F - 39.2 °F 66% 29.39 in 6.2 mi SSW 16.1 mph - N/A   Mostly Cloudy
2:55 PM 51.8 °F - 39.2 °F 62% 29.39 in 6.2 mi SSW 19.6 mph - N/A   Mostly Cloudy
3:25 PM 50.0 °F - 39.2 °F 66% 29.36 in 6.2 mi SSW 15.0 mph - N/A   Overcast
3:40 PM 50.0 °F - 39.2 °F 66% 29.36 in 4.3 mi SSW 17.3 mph - N/A Rain Light Rain
3:43 PM 48.2 °F - 41.0 °F 76% 29.36 in 3.1 mi SSW 18.4 mph 31.1 mph N/A Rain Rain
3:46 PM 46.4 °F 38.5 °F 41.0 °F 81% 29.36 in 3.1 mi SSW 21.9 mph 34.5 mph N/A Rain Heavy Rain Showers
3:48 PM 46.4 °F 38.3 °F 41.0 °F 81% 29.36 in 3.1 mi SSW 23.0 mph 34.5 mph N/A Rain Light Rain Showers
3:52 PM 46.4 °F 38.3 °F 42.8 °F 87% 29.36 in 6.2 mi SSW 23.0 mph 34.5 mph N/A Rain Light Rain
3:55 PM 46.4 °F 38.3 °F 42.8 °F 87% 29.36 in 6.2 mi SSW 23.0 mph 34.5 mph N/A Rain Light Rain
3:59 PM 46.4 °F 39.0 °F 42.8 °F 87% 29.39 in 6.2 mi SSW 19.6 mph - N/A   Mostly Cloudy
4:09 PM 46.4 °F 40.1 °F 42.8 °F 87% 29.39 in 6.2 mi SSW 15.0 mph - N/A   Mostly Cloudy
4:25 PM 46.4 °F 41.1 °F 42.8 °F 87% 29.39 in 6.2 mi SSW 11.5 mph - N/A Rain Drizzle
4:50 PM 46.4 °F 41.1 °F 41.0 °F 81% 29.36 in 6.2 mi South 11.5 mph - N/A Rain Light Rain
4:55 PM 46.4 °F 41.1 °F 42.8 °F 87% 29.36 in 6.2 mi SSW 11.5 mph - N/A Rain Light Rain
4:59 PM 46.4 °F 41.5 °F 42.8 °F 87% 29.36 in 6.2 mi SSW 10.4 mph - N/A Rain Rain
5:05 PM 46.4 °F 41.5 °F 42.8 °F 87% 29.36 in 6.2 mi SSW 10.4 mph - N/A Rain Light Rain Showers
5:09 PM 46.4 °F 41.5 °F 42.8 °F 87% 29.36 in 6.2 mi SSW 10.4 mph - N/A Rain Light Rain
5:15 PM 44.6 °F 38.1 °F 42.8 °F 93% 29.36 in 6.2 mi SSW 13.8 mph - N/A Rain Light Rain Showers
5:20 PM 44.6 °F 38.1 °F 41.0 °F 87% 29.36 in 6.2 mi SSW 13.8 mph - N/A Rain Rain Showers
5:25 PM 44.6 °F 38.1 °F 41.0 °F 87% 29.36 in 6.2 mi SSW 13.8 mph - N/A Rain Light Rain Showers
5:31 PM 44.6 °F 38.4 °F 41.0 °F 87% 29.36 in 6.2 mi SSW 12.7 mph - N/A Rain Light Rain
5:32 PM 44.6 °F 38.8 °F 41.0 °F 87% 29.36 in 6.2 mi SSW 11.5 mph - N/A   Light Drizzle
5:45 PM 44.6 °F 40.2 °F 41.0 °F 87% 29.36 in 6.2 mi SSW 8.1 mph - N/A Rain Light Rain
5:55 PM 44.6 °F 41.4 °F 42.8 °F 93% 29.36 in 6.2 mi South 5.8 mph - N/A Rain Light Rain
6:01 PM 44.6 °F 41.4 °F 42.8 °F 93% 29.36 in 6.2 mi SSW 5.8 mph - N/A Rain Light Rain
6:02 PM 44.6 °F 42.2 °F 42.8 °F 93% 29.36 in 3.7 mi SSW 4.6 mph - N/A Rain Light Rain
6:15 PM 44.6 °F 42.2 °F 42.8 °F 93% 29.36 in 5.6 mi South 4.6 mph - N/A Rain Light Rain Showers
6:25 PM 44.6 °F 42.2 °F 42.8 °F 93% 29.36 in 4.3 mi South 4.6 mph - N/A Rain Light Rain Showers
6:28 PM 44.6 °F 41.4 °F 42.8 °F 93% 29.36 in 6.2 mi SW 5.8 mph - N/A Rain Light Rain Showers
6:30 PM 44.6 °F 41.4 °F 42.8 °F 93% 29.39 in 4.3 mi WSW 5.8 mph - N/A Rain Light Rain Showers
6:41 PM 44.6 °F 41.4 °F 42.8 °F 93% 29.36 in 4.3 mi SW 5.8 mph - N/A Rain Light Rain Showers
6:43 PM 44.6 °F 41.4 °F 42.8 °F 93% 29.36 in 6.2 mi SSW 5.8 mph - N/A Rain Light Rain Showers
6:46 PM 44.6 °F 41.4 °F 42.8 °F 93% 29.36 in 6.2 mi SSW 5.8 mph - N/A   Overcast
6:55 PM 44.6 °F 41.4 °F 42.8 °F 93% 29.36 in 6.2 mi South 5.8 mph - N/A   Overcast
7:06 PM 44.6 °F 40.7 °F 42.8 °F 93% 29.36 in 6.2 mi South 6.9 mph - N/A   Overcast
7:10 PM 44.6 °F 40.2 °F 42.8 °F 93% 29.36 in 6.2 mi South 8.1 mph - N/A   Overcast
7:25 PM 44.6 °F 40.2 °F 42.8 °F 93% 29.36 in 6.2 mi SSW 8.1 mph - N/A   Light Drizzle
7:26 PM 44.6 °F 39.7 °F 42.8 °F 93% 29.36 in 6.2 mi SSW 9.2 mph - N/A Rain Heavy Drizzle
7:33 PM 44.6 °F 38.8 °F 42.8 °F 93% 29.36 in 6.2 mi SSW 11.5 mph - N/A Rain Light Rain Showers
7:55 PM 44.6 °F 40.2 °F 42.8 °F 93% 29.36 in 6.2 mi SSW 8.1 mph - N/A   Mostly Cloudy
7:57 PM 44.6 °F 40.2 °F 42.8 °F 93% 29.36 in 6.2 mi SSW 8.1 mph - N/A   Mostly Cloudy
8:03 PM 44.6 °F 40.2 °F 42.8 °F 93% 29.39 in 6.2 mi SSW 8.1 mph - N/A   Mostly Cloudy
8:04 PM 42.8 °F 38.0 °F 42.8 °F 100% 29.39 in 6.2 mi SSW 8.1 mph - N/A   Overcast
8:25 PM 41.0 °F 36.4 °F 39.2 °F 93% 29.39 in 6.2 mi SW 6.9 mph - N/A   Partly Cloudy
8:55 PM 42.8 °F 38.0 °F 41.0 °F 93% 29.39 in 6.2 mi SSW 8.1 mph - N/A   Unknown
9:25 PM 41.0 °F 33.9 °F 41.0 °F 100% 29.42 in 6.2 mi SSW 12.7 mph - N/A   Unknown
9:55 PM 41.0 °F 34.3 °F 39.2 °F 93% 29.42 in 6.2 mi SW 11.5 mph - N/A   Unknown
10:25 PM 41.0 °F 34.3 °F 39.2 °F 93% 29.44 in 6.2 mi SSW 11.5 mph - N/A   Unknown
10:55 PM 41.0 °F 33.9 °F 37.4 °F 87% 29.44 in 6.2 mi SW 12.7 mph - N/A   Unknown
11:25 PM 41.0 °F 33.9 °F 39.2 °F 93% 29.44 in 6.2 mi SW 12.7 mph - N/A   Unknown
11:55 PM 41.0 °F 33.5 °F 39.2 °F 93% 29.47 in 6.2 mi SW 13.8 mph - N/A   Mostly Cloudy